• în România
  • Lista ţărilor
  • Pe 7 zile
  • Temperatura apei
  • Hartă satelitară
  • Meteo pe hartă
  • Widget-uri
  • user-avatar
    Intrare

    Meteo pe oră la Lasanen

    Astăzi, 18 August, Sâmbătă

    Timp Temperatura Precipitaţii Vânt Presiune Umiditate
    00:00 +18°C° 0 mm 4 m/s 761 mmHg 82%
    01:00 +18°C° 0 mm 4 m/s 761 mmHg 83%
    02:00 +18°C° 0 mm 4 m/s 761 mmHg 84%
    03:00 +17°C° 0,1 mm 4 m/s 761 mmHg 86%
    04:00 +17°C° 0,1 mm 4 m/s 761 mmHg 88%
    05:00 +17°C° 0,1 mm 4 m/s 761 mmHg 91%
    06:00 +18°C° 0,1 mm 4 m/s 761 mmHg 86%
    07:00 +20°C° 0,1 mm 4 m/s 761 mmHg 82%
    08:00 +21°C° 0,1 mm 4 m/s 761 mmHg 78%
    09:00 +22°C° 0,1 mm 4 m/s 761 mmHg 72%
    10:00 +23°C° 0,1 mm 5 m/s 760 mmHg 66%
    11:00 +25°C° 0,1 mm 5 m/s 760 mmHg 60%
    12:00 +26°C° 0,2 mm 5 m/s 760 mmHg 58%
    13:00 +26°C° 0,2 mm 5 m/s 760 mmHg 57%
    14:00 +26°C° 0,2 mm 5 m/s 759 mmHg 56%
    15:00 +26°C° 0 mm 5 m/s 759 mmHg 55%
    16:00 +26°C° 0 mm 5 m/s 759 mmHg 54%
    17:00 +26°C° 0 mm 5 m/s 758 mmHg 54%
    18:00 +25°C° 0 mm 5 m/s 758 mmHg 60%
    19:00 +22°C° 0 mm 4 m/s 758 mmHg 67%
    20:00 +21°C° 0 mm 4 m/s 758 mmHg 73%
    21:00 +20°C° 0 mm 4 m/s 757 mmHg 76%
    22:00 +20°C° 0 mm 4 m/s 757 mmHg 80%
    23:00 +19°C° 0 mm 4 m/s 757 mmHg 83%

    Mâine, 19 August, Duminică

    Timp Temperatura Precipitaţii Vânt Presiune Umiditate
    00:00 +19°C° 0 mm 5 m/s 757 mmHg 84%
    01:00 +19°C° 0 mm 5 m/s 756 mmHg 85%
    02:00 +19°C° 0 mm 5 m/s 756 mmHg 87%
    03:00 +17°C° 0 mm 5 m/s 756 mmHg 84%
    04:00 +16°C° 0 mm 5 m/s 756 mmHg 82%
    05:00 +16°C° 0 mm 5 m/s 756 mmHg 79%
    06:00 +16°C° 0,1 mm 5 m/s 756 mmHg 79%
    07:00 +17°C° 0,1 mm 5 m/s 755 mmHg 80%
    08:00 +17°C° 0,1 mm 5 m/s 755 mmHg 80%
    09:00 +17°C° 0,9 mm 5 m/s 755 mmHg 83%
    10:00 +17°C° 0,9 mm 6 m/s 755 mmHg 87%
    11:00 +17°C° 0,9 mm 6 m/s 755 mmHg 90%
    12:00 +19°C° 0,9 mm 6 m/s 755 mmHg 87%
    13:00 +19°C° 0,9 mm 6 m/s 754 mmHg 84%
    14:00 +20°C° 0,9 mm 6 m/s 754 mmHg 80%
    15:00 +20°C° 0,1 mm 6 m/s 754 mmHg 74%
    16:00 +21°C° 0,1 mm 6 m/s 754 mmHg 68%
    17:00 +21°C° 0,1 mm 5 m/s 754 mmHg 62%
    18:00 +20°C° 0,1 mm 5 m/s 754 mmHg 67%
    19:00 +19°C° 0,1 mm 4 m/s 754 mmHg 71%
    20:00 +18°C° 0,1 mm 4 m/s 754 mmHg 76%
    21:00 +17°C° 0 mm 4 m/s 754 mmHg 77%
    22:00 +17°C° 0 mm 3 m/s 754 mmHg 77%
    23:00 +17°C° 0 mm 3 m/s 754 mmHg 78%

    Poimâine, 20 August, Luni

    Timp Temperatura Precipitaţii Vânt Presiune Umiditate
    00:00 +16°C° 0 mm 3 m/s 754 mmHg 75%
    01:00 +16°C° 0 mm 3 m/s 755 mmHg 73%
    02:00 +14°C° 0 mm 4 m/s 755 mmHg 71%
    03:00 +13°C° 0 mm 3 m/s 755 mmHg 72%
    04:00 +13°C° 0 mm 3 m/s 755 mmHg 73%
    05:00 +12°C° 0 mm 3 m/s 755 mmHg 74%
    06:00 +14°C° 0 mm 3 m/s 756 mmHg 67%
    07:00 +16°C° 0 mm 3 m/s 756 mmHg 60%
    08:00 +17°C° 0 mm 3 m/s 756 mmHg 54%
    09:00 +18°C° 0 mm 4 m/s 756 mmHg 50%
    10:00 +19°C° 0 mm 4 m/s 756 mmHg 46%
    11:00 +21°C° 0 mm 4 m/s 756 mmHg 42%
    12:00 +21°C° 0 mm 4 m/s 756 mmHg 41%
    13:00 +21°C° 0 mm 4 m/s 756 mmHg 40%
    14:00 +22°C° 0 mm 4 m/s 756 mmHg 40%
    15:00 +21°C° 0 mm 4 m/s 756 mmHg 41%
    16:00 +21°C° 0 mm 4 m/s 756 mmHg 43%
    17:00 +20°C° 0 mm 4 m/s 756 mmHg 45%
    18:00 +19°C° 0 mm 3 m/s 756 mmHg 51%
    19:00 +18°C° 0 mm 3 m/s 756 mmHg 57%
    20:00 +16°C° 0 mm 2 m/s 756 mmHg 63%
    21:00 +15°C° 0 mm 2 m/s 756 mmHg 67%
    22:00 +15°C° 0 mm 2 m/s 756 mmHg 70%
    23:00 +14°C° 0 mm 2 m/s 756 mmHg 74%

    21 August, Marţi

    Timp Temperatura Precipitaţii Vânt Presiune Umiditate
    00:00 +14°C° 0 mm 2 m/s 756 mmHg 75%
    01:00 +14°C° 0 mm 1 m/s 756 mmHg 77%
    02:00 +14°C° 0 mm 1 m/s 756 mmHg 78%
    03:00 +14°C° 0 mm 1 m/s 755 mmHg 77%
    04:00 +14°C° 0 mm 1 m/s 755 mmHg 77%
    05:00 +14°C° 0 mm 1 m/s 755 mmHg 76%
    06:00 +15°C° 0,1 mm 1 m/s 755 mmHg 75%
    07:00 +15°C° 0,1 mm 1 m/s 754 mmHg 74%
    08:00 +16°C° 0,1 mm 1 m/s 754 mmHg 72%
    09:00 +17°C° 0,3 mm 2 m/s 754 mmHg 71%
    10:00 +18°C° 0,3 mm 2 m/s 753 mmHg 70%
    11:00 +18°C° 0,3 mm 2 m/s 753 mmHg 69%
    12:00 +18°C° 1,2 mm 2 m/s 753 mmHg 75%
    13:00 +17°C° 1,2 mm 3 m/s 752 mmHg 80%
    14:00 +16°C° 1,2 mm 3 m/s 752 mmHg 85%
    15:00 +14°C° 1,7 mm 3 m/s 751 mmHg 87%
    16:00 +14°C° 1,7 mm 4 m/s 751 mmHg 89%
    17:00 +13°C° 1,7 mm 4 m/s 751 mmHg 91%
    18:00 +13°C° 0,6 mm 4 m/s 751 mmHg 90%
    19:00 +12°C° 0,6 mm 4 m/s 751 mmHg 90%
    20:00 +12°C° 0,6 mm 4 m/s 751 mmHg 90%
    21:00 +12°C° 0 mm 5 m/s 751 mmHg 90%
    22:00 +10°C° 0 mm 5 m/s 751 mmHg 90%
    23:00 +10°C° 0 mm 5 m/s 751 mmHg 90%

    22 August, Miercuri

    Timp Temperatura Precipitaţii Vânt Presiune Umiditate
    00:00 +10°C° 0 mm 5 m/s 752 mmHg 90%
    01:00 +10°C° 0 mm 5 m/s 752 mmHg 90%
    02:00 +10°C° 0 mm 5 m/s 753 mmHg 90%
    03:00 +10°C° 0 mm 4 m/s 753 mmHg 91%
    04:00 +10°C° 0 mm 4 m/s 754 mmHg 92%
    05:00 +10°C° 0 mm 4 m/s 754 mmHg 93%
    06:00 +11°C° 0 mm 4 m/s 755 mmHg 89%
    07:00 +12°C° 0 mm 4 m/s 755 mmHg 85%
    08:00 +13°C° 0 mm 4 m/s 755 mmHg 80%
    09:00 +16°C° 0 mm 3 m/s 755 mmHg 70%
    10:00 +17°C° 0 mm 3 m/s 756 mmHg 59%
    11:00 +19°C° 0 mm 3 m/s 756 mmHg 49%
    12:00 +19°C° 0 mm 2 m/s 756 mmHg 46%
    13:00 +20°C° 0 mm 2 m/s 756 mmHg 43%
    14:00 +21°C° 0 mm 1 m/s 756 mmHg 40%
    15:00 +21°C° 0 mm 1 m/s 756 mmHg 41%
    16:00 +20°C° 0 mm 1 m/s 756 mmHg 43%
    17:00 +20°C° 0 mm 1 m/s 756 mmHg 45%
    18:00 +19°C° 0 mm 1 m/s 756 mmHg 50%
    19:00 +16°C° 0 mm 1 m/s 756 mmHg 55%
    20:00 +15°C° 0 mm 2 m/s 756 mmHg 60%
    21:00 +14°C° 0 mm 2 m/s 755 mmHg 62%
    22:00 +14°C° 0 mm 2 m/s 755 mmHg 64%
    23:00 +13°C° 0 mm 3 m/s 755 mmHg 67%

    23 August, Joi

    Timp Temperatura Precipitaţii Vânt Presiune Umiditate
    00:00 +13°C° 0,2 mm 3 m/s 755 mmHg 71%
    01:00 +12°C° 0,2 mm 4 m/s 755 mmHg 75%
    02:00 +12°C° 0,2 mm 4 m/s 754 mmHg 79%
    03:00 +12°C° 0,8 mm 4 m/s 755 mmHg 82%
    04:00 +12°C° 0,8 mm 4 m/s 755 mmHg 84%
    05:00 +11°C° 0,8 mm 4 m/s 755 mmHg 87%
    06:00 +12°C° 0,2 mm 4 m/s 755 mmHg 86%
    07:00 +12°C° 0,2 mm 4 m/s 756 mmHg 84%
    08:00 +12°C° 0,2 mm 4 m/s 756 mmHg 83%
    09:00 +13°C° 0,1 mm 4 m/s 757 mmHg 77%
    10:00 +14°C° 0,1 mm 4 m/s 757 mmHg 71%
    11:00 +15°C° 0,1 mm 4 m/s 758 mmHg 64%
    12:00 +15°C° 0 mm 4 m/s 758 mmHg 59%
    13:00 +17°C° 0 mm 4 m/s 759 mmHg 53%
    14:00 +18°C° 0 mm 3 m/s 759 mmHg 47%
    15:00 +18°C° 0 mm 3 m/s 759 mmHg 46%
    16:00 +18°C° 0 mm 3 m/s 760 mmHg 46%
    17:00 +18°C° 0 mm 3 m/s 760 mmHg 46%
    18:00 +16°C° 0 mm 3 m/s 761 mmHg 52%
    19:00 +14°C° 0 mm 3 m/s 761 mmHg 59%
    20:00 +13°C° 0 mm 2 m/s 762 mmHg 66%
    21:00 +12°C° 0 mm 2 m/s 762 mmHg 71%
    22:00 +12°C° 0 mm 2 m/s 762 mmHg 75%
    23:00 +10°C° 0 mm 2 m/s 763 mmHg 80%
    Arată mai mult